QPF
0.01 0.01 0.02 0.03 0.02 0.02 0.04 0.05 0.06 0.05 0.05 0.04 0.03 0.03 0.03 0.04 0.04 0.03 0.03 0.03 0.04 0.04 0.06 0.11 0.12 0.09 0.08 0.07 0.05 0.03 0.04 0.05 0.04 0.04 0.06 0.07 0.06 0.07 0.05 0.04 0.03 0.03 0.06
0.01 0.01 0.02 0.02 0.02 0.02 0.03 0.04 0.06 0.06 0.05 0.04 0.04 0.04 0.04 0.04 0.04 0.04 0.04 0.04 0.03 0.04 0.03 0.07 0.12 0.10 0.08 0.05 0.04 0.03 0.03 0.04 0.03 0.04 0.05 0.07 0.07 0.06 0.04 0.03 0.03 0.03 0.05
0.00 0.00 0.01 0.01 0.02 0.03 0.03 0.04 0.05 0.06 0.05 0.04 0.04 0.04 0.04 0.04 0.04 0.04 0.04 0.03 0.03 0.03 0.03 0.05 0.07 0.08 0.07 0.05 0.04 0.04 0.04 0.04 0.03 0.03 0.02 0.03 0.05 0.04 0.04 0.03 0.03 0.04 0.04
0.00 0.01 0.01 0.01 0.02 0.04 0.05 0.03 0.03 0.04 0.04 0.03 0.03 0.03 0.04 0.04 0.03 0.03 0.03 0.03 0.03 0.02 0.02 0.03 0.04 0.05 0.06 0.05 0.03 0.03 0.03 0.03 0.02 0.02 0.02 0.02 0.02 0.03 0.03 0.03 0.03 0.04 0.04
0.01 0.01 0.01 0.02 0.03 0.05 0.06 0.04 0.03 0.03 0.03 0.03 0.02 0.02 0.03 0.03 0.03 0.03 0.03 0.04 0.03 0.02 0.01 0.02 0.02 0.03 0.03 0.04 0.04 0.04 0.04 0.04 0.03 0.03 0.02 0.02 0.03 0.03 0.03 0.03 0.04 0.03 0.04
0.00 0.01 0.02 0.03 0.03 0.03 0.05 0.05 0.03 0.02 0.02 0.03 0.03 0.02 0.03 0.04 0.04 0.03 0.03 0.03 0.03 0.03 0.02 0.02 0.02 0.02 0.03 0.03 0.04 0.05 0.05 0.05 0.04 0.03 0.03 0.03 0.03 0.03 0.03 0.03 0.03 0.03 0.04
0.00 0.00 0.01 0.04 0.04 0.02 0.02 0.04 0.05 0.03 0.03 0.03 0.03 0.03 0.04 0.05 0.05 0.04 0.04 0.04 0.04 0.03 0.03 0.03 0.02 0.02 0.02 0.03 0.03 0.03 0.04 0.04 0.03 0.02 0.02 0.02 0.04 0.04 0.04 0.03 0.03 0.03 0.03
0.00 0.00 0.01 0.01 0.04 0.05 0.03 0.03 0.05 0.05 0.05 0.04 0.03 0.03 0.04 0.04 0.04 0.05 0.04 0.04 0.04 0.03 0.02 0.03 0.03 0.03 0.02 0.02 0.02 0.02 0.01 0.01 0.01 0.01 0.02 0.02 0.03 0.04 0.04 0.04 0.04 0.04 0.03
0.00 0.01 0.01 0.01 0.02 0.03 0.03 0.02 0.03 0.04 0.05 0.06 0.04 0.03 0.04 0.04 0.04 0.05 0.04 0.04 0.04 0.03 0.02 0.03 0.02 0.02 0.02 0.02 0.01 0.01 0.01 0.01 0.01 0.01 0.02 0.02 0.03 0.03 0.05 0.04 0.05 0.05 0.04
0.01 0.01 0.01 0.01 0.01 0.01 0.02 0.02 0.02 0.02 0.03 0.04 0.04 0.03 0.03 0.04 0.05 0.05 0.04 0.04 0.03 0.03 0.02 0.02 0.02 0.02 0.02 0.02 0.01 0.01 0.01 0.01 0.02 0.02 0.05 0.06 0.04 0.04 0.05 0.05 0.05 0.05 0.04
0.02 0.02 0.01 0.01 0.01 0.01 0.01 0.02 0.02 0.02 0.02 0.03 0.04 0.03 0.03 0.04 0.05 0.06 0.06 0.05 0.03 0.03 0.03 0.03 0.02 0.02 0.02 0.02 0.01 0.01 0.01 0.02 0.03 0.03 0.06 0.11 0.10 0.07 0.06 0.07 0.07 0.06 0.05
0.02 0.03 0.03 0.02 0.02 0.02 0.01 0.02 0.02 0.03 0.03 0.03 0.03 0.03 0.03 0.04 0.07 0.08 0.10 0.08 0.06 0.04 0.03 0.03 0.02 0.02 0.02 0.02 0.01 0.01 0.01 0.02 0.05 0.06 0.08 0.13 0.17 0.13 0.10 0.09 0.07 0.06 0.05
0.02 0.02 0.03 0.03 0.03 0.03 0.02 0.01 0.02 0.02 0.03 0.03 0.03 0.04 0.04 0.05 0.07 0.10 0.12 0.14 0.08 0.05 0.03 0.03 0.03 0.03 0.02 0.02 0.01 0.01 0.01 0.02 0.05 0.09 0.11 0.14 0.15 0.14 0.11 0.08 0.06 0.06 0.05
0.01 0.02 0.02 0.03 0.04 0.04 0.03 0.02 0.01 0.01 0.02 0.02 0.02 0.03 0.04 0.05 0.06 0.08 0.11 0.15 0.12 0.06 0.03 0.03 0.02 0.03 0.03 0.02 0.01 0.01 0.00 0.01 0.04 0.08 0.12 0.12 0.13 0.13 0.11 0.09 0.07 0.07 0.06
0.01 0.01 0.01 0.01 0.02 0.04 0.03 0.02 0.01 0.01 0.01 0.01 0.02 0.02 0.02 0.02 0.04 0.07 0.10 0.12 0.12 0.08 0.04 0.02 0.02 0.02 0.02 0.02 0.02 0.01 0.01 0.01 0.02 0.06 0.11 0.13 0.14 0.14 0.12 0.10 0.09 0.08 0.06
0.01 0.01 0.01 0.01 0.01 0.02 0.03 0.02 0.02 0.02 0.01 0.02 0.02 0.02 0.01 0.01 0.03 0.05 0.08 0.12 0.12 0.11 0.07 0.02 0.01 0.01 0.02 0.02 0.02 0.02 0.01 0.01 0.02 0.05 0.08 0.11 0.11 0.10 0.09 0.09 0.09 0.08 0.07
0.01 0.01 0.01 0.01 0.01 0.02 0.02 0.02 0.02 0.02 0.02 0.02 0.02 0.03 0.03 0.02 0.02 0.03 0.06 0.09 0.11 0.11 0.09 0.06 0.03 0.02 0.02 0.02 0.02 0.02 0.01 0.01 0.02 0.03 0.05 0.06 0.07 0.07 0.06 0.06 0.07 0.07 0.06
0.01 0.01 0.01 0.01 0.01 0.02 0.02 0.02 0.01 0.01 0.02 0.02 0.02 0.03 0.03 0.04 0.04 0.04 0.05 0.08 0.10 0.11 0.10 0.08 0.06 0.03 0.02 0.02 0.02 0.01 0.01 0.01 0.01 0.02 0.03 0.04 0.04 0.04 0.03 0.04 0.04 0.04 0.04
0.01 0.01 0.01 0.01 0.01 0.01 0.01 0.01 0.01 0.01 0.01 0.01 0.02 0.02 0.03 0.04 0.06 0.07 0.07 0.09 0.11 0.12 0.12 0.10 0.09 0.06 0.04 0.03 0.02 0.01 0.01 0.01 0.01 0.02 0.02 0.03 0.03 0.03 0.03 0.03 0.03 0.03 0.03
0.02 0.02 0.01 0.01 0.01 0.01 0.01 0.01 0.01 0.01 0.01 0.02 0.02 0.02 0.02 0.03 0.04 0.05 0.08 0.10 0.12 0.13 0.12 0.12 0.11 0.10 0.07 0.05 0.03 0.03 0.03 0.02 0.02 0.01 0.01 0.01 0.02 0.02 0.02 0.02 0.02 0.02 0.03
0.03 0.02 0.03 0.03 0.01 0.01 0.01 0.01 0.01 0.01 0.01 0.01 0.02 0.02 0.02 0.02 0.03 0.04 0.06 0.07 0.11 0.12 0.12 0.11 0.11 0.11 0.10 0.08 0.06 0.05 0.05 0.04 0.03 0.02 0.02 0.01 0.01 0.02 0.02 0.02 0.02 0.02 0.02
0.02 0.02 0.02 0.04 0.03 0.02 0.01 0.01 0.01 0.01 0.01 0.01 0.01 0.02 0.02 0.02 0.03 0.03 0.05 0.07 0.09 0.09 0.10 0.11 0.10 0.11 0.10 0.07 0.06 0.06 0.06 0.06 0.05 0.03 0.03 0.02 0.01 0.01 0.02 0.02 0.02 0.02 0.02
0.01 0.01 0.02 0.03 0.04 0.03 0.02 0.02 0.01 0.01 0.01 0.01 0.01 0.02 0.02 0.02 0.02 0.03 0.04 0.05 0.08 0.08 0.08 0.09 0.10 0.10 0.10 0.09 0.06 0.05 0.05 0.05 0.04 0.03 0.03 0.02 0.02 0.01 0.01 0.02 0.02 0.02 0.02
0.01 0.01 0.02 0.02 0.05 0.06 0.04 0.03 0.02 0.01 0.01 0.01 0.01 0.02 0.02 0.02 0.01 0.01 0.02 0.03 0.05 0.08 0.08 0.07 0.08 0.09 0.10 0.09 0.08 0.07 0.06 0.05 0.04 0.04 0.03 0.02 0.02 0.02 0.01 0.01 0.02 0.02 0.02
0.01 0.01 0.01 0.02 0.03 0.05 0.06 0.04 0.03 0.02 0.02 0.01 0.01 0.02 0.02 0.02 0.02 0.02 0.02 0.02 0.03 0.04 0.07 0.07 0.07 0.08 0.08 0.07 0.06 0.05 0.05 0.04 0.03 0.03 0.03 0.02 0.02 0.02 0.01 0.01 0.01 0.01 0.02
0.00 0.01 0.01 0.02 0.03 0.03 0.05 0.05 0.04 0.04 0.04 0.04 0.02 0.02 0.02 0.03 0.03 0.02 0.02 0.02 0.02 0.03 0.04 0.06 0.06 0.06 0.07 0.07 0.05 0.04 0.04 0.04 0.03 0.03 0.03 0.03 0.02 0.02 0.02 0.01 0.01 0.01 0.01
MSLP
1022.74 1022.13 1021.42 1020.73 1020.16 1019.76 1019.56 1019.52 1019.61 1019.77 1019.95 1020.10 1020.22 1020.31 1020.37 1020.44 1020.51 1020.59 1020.68 1020.76 1020.80 1020.80 1020.75 1020.66 1020.52 1020.37 1020.20 1020.05 1019.92 1019.79 1019.68 1019.56 1019.43 1019.26 1019.06 1018.83 1018.56 1018.26 1017.94 1017.63 1017.33 1017.05 1016.81
1022.81 1022.17 1021.44 1020.73 1020.15 1019.75 1019.55 1019.52 1019.62 1019.81 1020.02 1020.23 1020.41 1020.57 1020.73 1020.88 1021.04 1021.20 1021.35 1021.47 1021.54 1021.54 1021.48 1021.35 1021.17 1020.97 1020.77 1020.58 1020.41 1020.27 1020.16 1020.05 1019.93 1019.79 1019.61 1019.39 1019.13 1018.83 1018.51 1018.17 1017.85 1017.56 1017.31
1022.94 1022.29 1021.54 1020.83 1020.24 1019.85 1019.65 1019.64 1019.76 1019.96 1020.20 1020.44 1020.67 1020.88 1021.09 1021.30 1021.52 1021.73 1021.92 1022.07 1022.16 1022.16 1022.09 1021.95 1021.75 1021.52 1021.29 1021.08 1020.90 1020.76 1020.65 1020.54 1020.44 1020.32 1020.16 1019.95 1019.70 1019.40 1019.07 1018.74 1018.42 1018.13 1017.89
1023.17 1022.50 1021.76 1021.05 1020.49 1020.11 1019.93 1019.93 1020.05 1020.26 1020.50 1020.75 1020.99 1021.22 1021.45 1021.69 1021.93 1022.16 1022.37 1022.53 1022.62 1022.63 1022.56 1022.42 1022.23 1022.01 1021.78 1021.58 1021.40 1021.27 1021.16 1021.06 1020.97 1020.85 1020.69 1020.48 1020.23 1019.93 1019.61 1019.28 1018.98 1018.70 1018.48
1023.50 1022.84 1022.11 1021.44 1020.90 1020.56 1020.40 1020.41 1020.53 1020.73 1020.95 1021.17 1021.39 1021.60 1021.82 1022.04 1022.27 1022.50 1022.70 1022.86 1022.95 1022.97 1022.92 1022.80 1022.63 1022.44 1022.25 1022.08 1021.93 1021.81 1021.71 1021.62 1021.52 1021.39 1021.21 1020.98 1020.71 1020.41 1020.09 1019.77 1019.49 1019.24 1019.06
1023.91 1023.28 1022.60 1021.98 1021.50 1021.20 1021.07 1021.08 1021.19 1021.35 1021.53 1021.71 1021.88 1022.05 1022.23 1022.41 1022.61 1022.81 1022.99 1023.14 1023.23 1023.26 1023.23 1023.14 1023.02 1022.88 1022.74 1022.61 1022.50 1022.41 1022.32 1022.23 1022.10 1021.94 1021.72 1021.45 1021.14 1020.82 1020.49 1020.18 1019.92 1019.72 1019.57
1024.39 1023.81 1023.20 1022.67 1022.26 1022.01 1021.91 1021.92 1022.01 1022.13 1022.26 1022.38 1022.49 1022.61 1022.74 1022.88 1023.04 1023.20 1023.35 1023.48 1023.56 1023.59 1023.57 1023.52 1023.44 1023.35 1023.27 1023.20 1023.13 1023.07 1022.99 1022.88 1022.72 1022.50 1022.23 1021.90 1021.54 1021.18 1020.83 1020.52 1020.28 1020.11 1020.00
1024.89 1024.39 1023.89 1023.45 1023.13 1022.94 1022.87 1022.88 1022.94 1023.02 1023.10 1023.16 1023.23 1023.30 1023.39 1023.49 1023.62 1023.75 1023.87 1023.96 1024.02 1024.04 1024.03 1023.99 1023.94 1023.90 1023.86 1023.84 1023.81 1023.77 1023.70 1023.57 1023.37 1023.10 1022.75 1022.35 1021.93 1021.51 1021.13 1020.82 1020.59 1020.44 1020.37
1025.37 1024.98 1024.59 1024.27 1024.05 1023.92 1023.88 1023.90 1023.94 1023.99 1024.02 1024.05 1024.08 1024.13 1024.19 1024.28 1024.38 1024.49 1024.58 1024.64 1024.66 1024.66 1024.62 1024.58 1024.54 1024.51 1024.51 1024.52 1024.52 1024.50 1024.43 1024.29 1024.05 1023.72 1023.31 1022.84 1022.35 1021.87 1021.45 1021.11 1020.88 1020.74 1020.68
1025.79 1025.53 1025.27 1025.07 1024.94 1024.89 1024.89 1024.91 1024.94 1024.97 1024.98 1024.99 1025.01 1025.05 1025.11 1025.20 1025.30 1025.38 1025.45 1025.47 1025.45 1025.40 1025.33 1025.25 1025.20 1025.17 1025.17 1025.20 1025.22 1025.22 1025.16 1025.01 1024.75 1024.38 1023.92 1023.39 1022.83 1022.30 1021.83 1021.45 1021.19 1021.04 1020.98
1026.13 1026.00 1025.88 1025.80 1025.77 1025.78 1025.82 1025.86 1025.89 1025.90 1025.91 1025.92 1025.95 1026.00 1026.08 1026.18 1026.28 1026.36 1026.39 1026.38 1026.31 1026.20 1026.08 1025.96 1025.87 1025.82 1025.82 1025.85 1025.89 1025.90 1025.86 1025.71 1025.46 1025.07 1024.58 1024.02 1023.42 1022.83 1022.31 1021.88 1021.57 1021.38 1021.29
1026.41 1026.40 1026.40 1026.43 1026.48 1026.55 1026.63 1026.68 1026.72 1026.74 1026.76 1026.78 1026.83 1026.91 1027.01 1027.12 1027.22 1027.29 1027.30 1027.25 1027.13 1026.97 1026.79 1026.63 1026.49 1026.42 1026.40 1026.44 1026.49 1026.53 1026.51 1026.40 1026.16 1025.80 1025.31 1024.73 1024.10 1023.48 1022.90 1022.42 1022.04 1021.79 1021.63
1026.64 1026.74 1026.85 1026.96 1027.08 1027.19 1027.30 1027.38 1027.43 1027.46 1027.50 1027.54 1027.61 1027.71 1027.82 1027.94 1028.04 1028.09 1028.08 1027.99 1027.84 1027.64 1027.42 1027.21 1027.05 1026.95 1026.92 1026.96 1027.03 1027.09 1027.11 1027.05 1026.86 1026.53 1026.07 1025.51 1024.88 1024.23 1023.62 1023.07 1022.62 1022.28 1022.03
1026.87 1027.06 1027.23 1027.40 1027.56 1027.70 1027.83 1027.93 1028.00 1028.06 1028.11 1028.18 1028.26 1028.36 1028.48 1028.59 1028.67 1028.71 1028.67 1028.56 1028.39 1028.17 1027.93 1027.70 1027.52 1027.41 1027.38 1027.42 1027.51 1027.60 1027.67 1027.65 1027.52 1027.26 1026.85 1026.33 1025.72 1025.07 1024.43 1023.82 1023.30 1022.86 1022.51
1027.15 1027.39 1027.59 1027.78 1027.96 1028.12 1028.26 1028.38 1028.47 1028.55 1028.63 1028.70 1028.79 1028.89 1028.98 1029.07 1029.13 1029.14 1029.08 1028.97 1028.79 1028.57 1028.34 1028.12 1027.94 1027.83 1027.80 1027.85 1027.95 1028.07 1028.17 1028.21 1028.15 1027.95 1027.62 1027.16 1026.59 1025.96 1025.30 1024.66 1024.06 1023.53 1023.08
1027.52 1027.76 1027.96 1028.14 1028.30 1028.46 1028.61 1028.75 1028.87 1028.98 1029.07 1029.16 1029.25 1029.32 1029.39 1029.43 1029.45 1029.43 1029.36 1029.25 1029.09 1028.89 1028.69 1028.50 1028.34 1028.25 1028.22 1028.27 1028.38 1028.51 1028.63 1028.71 1028.71 1028.58 1028.33 1027.94 1027.43 1026.84 1026.20 1025.53 1024.89 1024.29 1023.74
1027.98 1028.19 1028.35 1028.49 1028.63 1028.78 1028.93 1029.08 1029.24 1029.38 1029.50 1029.60 1029.68 1029.73 1029.75 1029.76 1029.73 1029.68 1029.60 1029.49 1029.35 1029.20 1029.04 1028.89 1028.77 1028.69 1028.66 1028.70 1028.79 1028.92 1029.05 1029.16 1029.19 1029.13 1028.95 1028.64 1028.21 1027.68 1027.07 1026.41 1025.75 1025.10 1024.49
1028.50 1028.66 1028.77 1028.86 1028.96 1029.08 1029.24 1029.42 1029.61 1029.79 1029.94 1030.06 1030.13 1030.16 1030.14 1030.10 1030.03 1029.94 1029.85 1029.75 1029.65 1029.54 1029.43 1029.32 1029.23 1029.16 1029.13 1029.14 1029.20 1029.30 1029.42 1029.53 1029.60 1029.59 1029.48 1029.25 1028.90 1028.44 1027.88 1027.26 1026.61 1025.95 1025.30
1029.05 1029.14 1029.18 1029.22 1029.28 1029.39 1029.56 1029.76 1029.99 1030.21 1030.40 1030.54 1030.61 1030.62 1030.57 1030.48 1030.37 1030.26 1030.16 1030.07 1029.99 1029.92 1029.85 1029.78 1029.70 1029.64 1029.59 1029.57 1029.59 1029.66 1029.74 1029.84 1029.93 1029.96 1029.91 1029.75 1029.49 1029.11 1028.63 1028.06 1027.45 1026.80 1026.16
1029.56 1029.59 1029.58 1029.57 1029.60 1029.70 1029.87 1030.11 1030.38 1030.64 1030.87 1031.03 1031.11 1031.10 1031.03 1030.91 1030.77 1030.63 1030.51 1030.43 1030.37 1030.32 1030.28 1030.23 1030.17 1030.10 1030.02 1029.97 1029.95 1029.97 1030.03 1030.11 1030.20 1030.26 1030.26 1030.18 1029.99 1029.70 1029.29 1028.80 1028.24 1027.63 1027.01
1029.98 1029.98 1029.93 1029.89 1029.91 1030.00 1030.19 1030.45 1030.74 1031.04 1031.30 1031.48 1031.57 1031.56 1031.48 1031.33 1031.16 1031.01 1030.88 1030.79 1030.73 1030.70 1030.67 1030.63 1030.57 1030.49 1030.40 1030.32 1030.27 1030.26 1030.29 1030.36 1030.46 1030.54 1030.59 1030.57 1030.45 1030.23 1029.90 1029.47 1028.97 1028.42 1027.83
1030.29 1030.27 1030.22 1030.17 1030.19 1030.30 1030.49 1030.76 1031.08 1031.40 1031.67 1031.87 1031.97 1031.96 1031.86 1031.70 1031.52 1031.34 1031.20 1031.10 1031.04 1031.01 1030.98 1030.95 1030.89 1030.81 1030.71 1030.62 1030.55 1030.52 1030.55 1030.62 1030.73 1030.84 1030.93 1030.95 1030.89 1030.73 1030.46 1030.10 1029.65 1029.14 1028.59
1030.49 1030.49 1030.45 1030.43 1030.46 1030.58 1030.78 1031.05 1031.37 1031.68 1031.96 1032.16 1032.25 1032.25 1032.14 1031.98 1031.78 1031.59 1031.43 1031.32 1031.25 1031.21 1031.19 1031.16 1031.10 1031.03 1030.95 1030.86 1030.81 1030.79 1030.83 1030.92 1031.05 1031.19 1031.31 1031.37 1031.34 1031.22 1031.00 1030.67 1030.26 1029.78 1029.26
1030.61 1030.65 1030.66 1030.67 1030.73 1030.85 1031.05 1031.30 1031.60 1031.90 1032.15 1032.34 1032.43 1032.42 1032.31 1032.15 1031.95 1031.75 1031.58 1031.45 1031.37 1031.32 1031.30 1031.27 1031.24 1031.19 1031.13 1031.09 1031.06 1031.09 1031.16 1031.28 1031.43 1031.59 1031.73 1031.82 1031.82 1031.72 1031.52 1031.22 1030.83 1030.37 1029.86
1030.71 1030.80 1030.86 1030.92 1031.00 1031.13 1031.31 1031.53 1031.78 1032.04 1032.26 1032.42 1032.50 1032.49 1032.39 1032.23 1032.03 1031.83 1031.66 1031.52 1031.42 1031.37 1031.34 1031.33 1031.32 1031.31 1031.29 1031.30 1031.33 1031.39 1031.51 1031.66 1031.84 1032.03 1032.18 1032.28 1032.30 1032.21 1032.02 1031.73 1031.35 1030.90 1030.39
1030.84 1030.98 1031.09 1031.19 1031.28 1031.40 1031.55 1031.73 1031.93 1032.13 1032.31 1032.44 1032.50 1032.49 1032.40 1032.25 1032.07 1031.88 1031.70 1031.55 1031.45 1031.39 1031.37 1031.37 1031.38 1031.41 1031.44 1031.50 1031.58 1031.70 1031.85 1032.04 1032.24 1032.44 1032.61 1032.71 1032.73 1032.66 1032.48 1032.20 1031.82 1031.38 1030.87
Thickness
5684 5687 5689 5691 5693 5694 5696 5697 5698 5698 5699 5699 5700 5701 5702 5702 5703 5704 5705 5706 5707 5709 5710 5711 5712 5713 5714 5714 5714 5715 5715 5716 5716 5717 5718 5718 5719 5719 5719 5719 5719 5719 5719
5683 5685 5686 5688 5690 5691 5693 5694 5694 5695 5696 5696 5696 5697 5698 5699 5700 5701 5702 5703 5704 5705 5706 5707 5708 5709 5709 5710 5710 5710 5711 5711 5712 5712 5713 5714 5714 5715 5715 5715 5715 5715 5715
5681 5682 5683 5685 5687 5688 5689 5690 5691 5691 5692 5693 5693 5693 5694 5695 5696 5697 5698 5699 5700 5701 5702 5703 5703 5704 5704 5705 5706 5706 5707 5707 5707 5708 5708 5709 5710 5711 5711 5711 5711 5711 5711
5677 5678 5680 5682 5683 5684 5685 5686 5687 5688 5689 5689 5689 5689 5690 5690 5691 5692 5693 5694 5695 5696 5697 5698 5698 5699 5699 5700 5701 5702 5702 5703 5703 5703 5704 5704 5705 5706 5706 5706 5706 5706 5707
5673 5673 5675 5677 5679 5679 5680 5681 5682 5683 5684 5684 5685 5685 5685 5686 5686 5687 5688 5689 5690 5691 5692 5693 5693 5694 5694 5695 5696 5697 5697 5698 5698 5699 5699 5700 5701 5701 5702 5702 5702 5701 5702
5667 5668 5670 5672 5673 5674 5675 5676 5677 5678 5678 5679 5680 5680 5680 5680 5681 5681 5682 5683 5684 5685 5686 5687 5688 5688 5689 5690 5690 5691 5692 5692 5693 5694 5694 5695 5696 5696 5697 5697 5697 5697 5697
5661 5663 5664 5666 5667 5668 5669 5670 5670 5671 5672 5673 5674 5674 5675 5675 5675 5676 5677 5677 5678 5679 5680 5681 5682 5682 5683 5684 5685 5685 5686 5687 5687 5689 5689 5690 5691 5691 5691 5691 5691 5691 5692
5655 5656 5658 5659 5661 5662 5662 5664 5664 5665 5665 5666 5667 5668 5669 5669 5670 5669 5670 5671 5672 5673 5673 5674 5675 5676 5677 5678 5678 5679 5680 5681 5681 5683 5683 5684 5685 5686 5686 5686 5686 5686 5686
5648 5649 5650 5651 5653 5655 5656 5657 5658 5658 5658 5659 5659 5660 5661 5662 5663 5664 5664 5665 5666 5666 5666 5667 5668 5669 5670 5671 5672 5673 5673 5674 5675 5676 5677 5678 5679 5680 5680 5680 5680 5680 5680
5641 5642 5642 5643 5645 5647 5648 5649 5650 5650 5651 5652 5652 5652 5653 5654 5655 5656 5657 5659 5659 5660 5660 5661 5661 5662 5663 5664 5665 5666 5667 5668 5669 5670 5671 5672 5673 5673 5673 5674 5674 5674 5674
5631 5633 5634 5635 5637 5638 5639 5640 5641 5642 5643 5643 5644 5644 5645 5646 5647 5649 5650 5651 5652 5653 5653 5654 5654 5655 5656 5656 5657 5658 5659 5660 5662 5663 5664 5665 5665 5666 5666 5666 5667 5667 5667
5622 5623 5625 5627 5628 5629 5630 5631 5632 5633 5634 5635 5636 5636 5637 5638 5639 5640 5642 5643 5644 5645 5645 5646 5646 5647 5648 5649 5649 5650 5651 5652 5654 5655 5657 5657 5658 5658 5659 5659 5659 5660 5660
5614 5615 5616 5618 5619 5621 5622 5622 5623 5625 5625 5626 5627 5628 5629 5630 5631 5632 5633 5634 5635 5637 5637 5637 5638 5639 5640 5640 5641 5642 5643 5644 5645 5647 5648 5648 5649 5650 5651 5651 5652 5652 5652
5605 5606 5607 5609 5611 5612 5613 5613 5614 5615 5616 5617 5618 5619 5620 5621 5622 5623 5624 5625 5626 5627 5628 5628 5629 5630 5631 5632 5632 5633 5634 5635 5636 5638 5638 5639 5640 5642 5642 5643 5644 5644 5645
5596 5597 5598 5599 5601 5602 5603 5604 5605 5606 5607 5608 5609 5610 5611 5612 5612 5613 5614 5615 5617 5618 5619 5620 5620 5620 5621 5622 5623 5624 5625 5625 5627 5628 5628 5629 5631 5632 5633 5634 5635 5636 5636
5588 5588 5589 5590 5591 5592 5593 5595 5596 5597 5598 5598 5599 5601 5602 5603 5604 5604 5605 5606 5607 5609 5610 5611 5611 5611 5612 5612 5613 5614 5615 5616 5617 5618 5619 5620 5621 5622 5624 5625 5626 5627 5627
5578 5579 5579 5580 5580 5581 5583 5584 5585 5586 5587 5588 5590 5591 5592 5594 5595 5595 5596 5596 5598 5599 5600 5601 5602 5602 5602 5602 5602 5603 5604 5605 5607 5608 5609 5610 5610 5612 5613 5615 5616 5616 5617
5568 5568 5569 5570 5570 5571 5572 5573 5574 5575 5576 5577 5579 5580 5582 5583 5585 5585 5586 5587 5588 5589 5590 5591 5592 5592 5591 5591 5591 5592 5593 5594 5596 5597 5598 5599 5600 5601 5603 5604 5605 5606 5607
5558 5557 5557 5559 5559 5560 5561 5562 5563 5564 5565 5566 5568 5569 5571 5572 5574 5575 5576 5576 5578 5579 5579 5580 5580 5581 5580 5580 5580 5581 5582 5583 5584 5586 5587 5588 5589 5591 5592 5593 5594 5595 5596
5547 5547 5546 5547 5548 5549 5549 5550 5551 5551 5553 5554 5556 5557 5559 5561 5562 5564 5565 5565 5567 5567 5568 5568 5568 5568 5568 5569 5569 5569 5569 5571 5573 5575 5575 5576 5578 5579 5580 5582 5583 5584 5585
5536 5536 5536 5536 5536 5537 5537 5538 5538 5539 5540 5542 5543 5545 5547 5549 5551 5552 5553 5554 5555 5556 5556 5556 5557 5555 5555 5556 5556 5555 5556 5558 5560 5562 5563 5564 5565 5567 5569 5570 5571 5572 5573
5526 5525 5525 5525 5526 5526 5526 5527 5527 5527 5528 5529 5531 5532 5534 5536 5539 5541 5542 5542 5543 5544 5544 5545 5545 5543 5542 5543 5544 5544 5543 5544 5546 5548 5550 5551 5552 5554 5556 5557 5558 5560 5561
5515 5515 5515 5514 5514 5514 5515 5514 5514 5514 5515 5516 5518 5519 5521 5523 5525 5528 5529 5530 5531 5532 5533 5533 5533 5533 5530 5529 5532 5533 5532 5532 5530 5533 5535 5537 5538 5540 5542 5544 5546 5547 5548
5504 5504 5504 5504 5503 5503 5503 5502 5502 5503 5503 5504 5506 5507 5508 5510 5512 5514 5516 5517 5519 5520 5521 5521 5521 5521 5520 5518 5517 5518 5520 5520 5518 5519 5521 5523 5525 5526 5528 5530 5532 5533 5535
5493 5492 5492 5492 5491 5491 5491 5491 5491 5491 5491 5492 5493 5494 5496 5497 5499 5501 5502 5504 5505 5507 5507 5508 5507 5508 5508 5507 5506 5505 5505 5505 5505 5507 5508 5509 5510 5512 5514 5516 5518 5520 5522
5481 5479 5479 5479 5479 5478 5477 5478 5479 5479 5478 5478 5479 5480 5482 5484 5486 5488 5489 5490 5492 5493 5494 5495 5495 5495 5495 5495 5494 5495 5495 5494 5493 5493 5494 5495 5496 5499 5501 5502 5504 5507 5508